[[{"header":{"parameterUnit":"m.s-1","parameterCategory":1,"la1":30.2991,"la2":30.254,"lo1":-89.0895,"lo2":-89.0444,"dy":0.0017,"dx":0.0017,"nx":28,"ny":28,"refTime":"2024-06-06T03:00:00:Z","depth":0,"parameterNumber":2,"parameterNumberName":"U-component_of_WINDS"},"data":[0,0,0,0,0,0,0,0,0,0,0,0,0,0,0,0,0,0,0,0,0,0,0,0,0,0,0,0,0,0,0,0,0,0,0,0,0,0,0,0,0,0,0,0,0,0,0,0,0,0,0,0,0,0,0,0,0,0,0.9839,0.9839,0,0.9815,0.9815,0.9815,0.9749,0.9747,0.9746,0.9745,0.9722,0.9723,0.9723,0,0,0,0,0,0,0,0,0,0,0,0,0,0.9828,0.9829,0.9839,0.9839,0.9838,0.9815,0.9815,0.9815,0.9749,0.9747,0.9746,0.9744,0.9722,0.9723,0.9724,0,0,0,0,0,0,0,0,0,0,0,0,0,0.9822,0.9829,0.9839,0.9803,0.9799,0.9815,0.9815,0.9815,0.975,0.9747,0.9745,0.9743,0.9722,0.9723,0.9724,0.9773,0,0,0.9727,0.9728,0,0,0,0,0,0,0,0,0.9822,0.9822,0.9808,0.9805,0.9802,0.9783,0.9803,0.9801,0.975,0.9769,0.9745,0.9742,0.9744,0.9743,0.9744,0.9772,0.9771,0.9727,0.9728,0.9728,0.9729,0,0,0,0,0,0,0,0.9823,0.9823,0.983,0.9808,0.9804,0.9788,0.9785,0.9802,0.9769,0.9767,0.9762,0.976,0.9742,0.9743,0.9743,0.9771,0.9727,0.9728,0.9729,0.9729,0.9839,0.9841,0,0,0,0,0,0,0.9828,0.9824,0.983,0.9829,0.9807,0.979,0.9786,0.9791,0.9768,0.9763,0.9762,0.9757,0.9742,0.9741,0.9742,0.9798,0.9728,0.9729,0.973,0.9837,0.9839,0.9842,0,0,0,0,0,0,0.9828,0.983,0.9831,0.9825,0.9824,0.9793,0.9798,0.9792,0.9792,0.9765,0.9758,0.9769,0.974,0.974,0.9766,0.9796,0.973,0.9731,0.9834,0.9837,0.9841,0.9911,0,0,0,0,0,0,0.9828,0.983,0.9848,0.9826,0.9825,0.9856,0.98,0.9793,0.9794,0.9788,0.9769,0.9764,0.9738,0.9764,0.9767,0.9796,0.9732,0.9831,0.9835,0.9839,0.9906,0.9916,0.9925,0,0,0,0,0,0.9828,0.9869,0.985,0.9851,0.9847,0.9858,0.9857,0.9826,0.9797,0.9815,0.9797,0.9765,0.9792,0.9768,0.977,0.98,0.9829,0.9834,0.9839,0.9901,0.9914,0.9925,0,0,0,0,0,0,0.9897,0.9866,0.9843,0.9879,0.9871,0.9847,0.9868,0.9841,0.9842,0.9836,0.9797,0.9794,0.9825,0.9815,0.9788,0.9847,0.9805,0.9811,0.9852,0.9864,0.9873,0.9875,0.9733,0,0,0,0,0,0.9916,0.9927,0.9899,0.9933,0.993,0.99,0.9904,0.9881,0.9872,0.9868,0.9852,0.9845,0.9852,0.9857,0.9862,0.9904,0.9899,0.9926,0.9936,0.9944,0.9949,0.997,0.9981,0.9858,0.9858,0.9858,0,0,0.9956,0.994,0.9949,0.9947,0.9938,0.995,0.9898,0.9914,0.9923,0.9871,0.9894,0.9882,0.9872,0.9905,0.9919,0.9898,0.9982,0.995,0.9957,0.9958,0.9976,0.9988,0.9998,0.9862,0.9861,0.9861,0,0,1.0034,1.0024,1.005,1.0043,1.003,1.001,1.0017,0.9996,0.9986,1.0008,0.9969,0.998,0.9993,0.9987,0.9985,1.0062,1.0032,1.0064,1.0115,1.0136,1.0146,1.0154,1.0181,1.0191,1.007,1.007,1.007,0,1.0085,1.0102,1.0068,1.0085,1.0085,1.0038,1.0065,1.0059,1.005,1.0051,1.0027,1.0042,1.0032,1.0063,1.0082,1.0082,1.0089,1.0066,1.0147,1.0155,1.0163,1.0188,1.0198,1.0074,1.0074,1.0073,1.0073,0,1.0165,1.0177,1.02,1.0191,1.0194,1.0216,1.0185,1.0192,1.0169,1.0151,1.0174,1.016,1.0161,1.0167,1.0145,1.0196,1.0183,1.0154,1.0111,1.0179,1.0202,1.0211,1.008,1.0078,1.0077,1.0076,0,0,1.0286,1.0257,1.0266,1.0261,1.0244,1.0253,1.0273,1.0274,1.028,1.0275,1.0291,1.0303,1.0276,1.0274,1.0251,1.0269,1.033,1.0238,1.0237,1.0255,1.0385,1.0406,1.0418,1.031,1.0312,1.0314,1.0386,0,1.0359,1.0391,1.0361,1.0399,1.041,1.0366,1.0383,1.0375,1.0359,1.0367,1.0349,1.0358,1.0322,1.0321,1.0337,1.0319,1.0356,1.0314,1.0325,1.0326,1.0328,1.043,1.0453,1.0522,1.0394,1.0396,1.0397,0,1.0449,1.0447,1.0487,1.0466,1.047,1.0486,1.0484,1.0491,1.0481,1.0468,1.0467,1.0438,1.0457,1.0416,1.0442,1.0414,1.0417,1.0409,1.0411,1.041,1.0365,1.0432,1.0543,1.0553,1.0411,1.041,1.0409,0,1.0532,1.054,1.0564,1.0561,1.0539,1.0551,1.0543,1.053,1.0532,1.0531,1.0532,1.0533,1.0533,1.0535,1.0508,1.048,1.0536,1.0493,1.0526,1.0527,1.054,1.0539,1.0652,1.0543,1.0543,1.0542,1.0542,0,1.0617,1.0643,1.0601,1.0616,1.0643,1.0609,1.0637,1.0624,1.0613,1.0625,1.0587,1.0599,1.0563,1.0571,1.055,1.0574,1.0575,1.0565,1.0559,1.0568,1.0569,1.0569,1.0563,1.0545,1.0545,1.0544,1.0544,0,1.0714,1.0687,1.0711,1.0687,1.0682,1.0703,1.0683,1.0697,1.0678,1.0694,1.0696,1.0667,1.0675,1.0648,1.0652,1.0637,1.0673,1.0659,1.0676,1.0672,1.0706,1.0703,1.0822,1.0836,1.0719,1.072,1.0721,0,1.077,1.0788,1.0767,1.0771,1.0764,1.0773,1.0775,1.0742,1.0745,1.0735,1.0749,1.0754,1.0756,1.0771,1.0751,1.0753,1.0739,1.0781,1.0739,1.0748,1.0739,1.0738,1.074,1.0789,1.0791,1.0792,1.0793,0,1.0871,1.0856,1.086,1.0859,1.0862,1.086,1.0856,1.0862,1.0826,1.0832,1.0839,1.0841,1.0844,1.085,1.0848,1.0839,1.0811,1.0806,1.0814,1.0823,1.0832,1.0827,1.0699,1.0804,1.0802,1.0802,1.0801,1.0801,1.0948,1.0962,1.0949,1.0954,1.0947,1.0944,1.0955,1.0938,1.0943,1.0943,1.0923,1.0935,1.0924,1.0919,1.0913,1.0922,1.0903,1.0914,1.0917,1.092,1.0925,1.0831,1.0922,1.0921,1.0921,1.0921,1.092,0,1.1046,1.1036,1.1041,1.1035,1.104,1.1012,1.1005,1.1011,1.1021,1.1013,1.1016,1.1024,1.1029,1.101,1.1012,1.1023,1.101,1.1024,1.1023,1.1022,1.0943,1.0936,1.1035,1.1035,1.1035,1.1035,1.1035,1.1035,1.1098,1.112,1.1105,1.1123,1.1112,1.1123,1.1121,1.1118,1.1112,1.1123,1.1126,1.1113,1.1101,1.1102,1.1106,1.11,1.1102,1.1122,1.1112,1.1038,1.1027,1.1016,1.1009,1.1123,1.1123,1.1189,1.119,1.1191]},{"header":{"parameterUnit":"m.s-1","parameterCategory":1,"la1":30.2991,"la2":30.254,"lo1":-89.0895,"lo2":-89.0444,"dy":0.0017,"dx":0.0017,"nx":28,"ny":28,"refTime":"2024-06-06T03:00:00:Z","depth":0,"parameterNumber":3,"parameterNumberName":"V-component_of_WINDS"},"data":[0,0,0,0,0,0,0,0,0,0,0,0,0,0,0,0,0,0,0,0,0,0,0,0,0,0,0,0,0,0,0,0,0,0,0,0,0,0,0,0,0,0,0,0,0,0,0,0,0,0,0,0,0,0,0,0,0,0,6.7004,6.7004,0,6.6947,6.6946,6.6945,6.6827,6.6824,6.6822,6.682,6.6761,6.6762,6.6763,0,0,0,0,0,0,0,0,0,0,0,0,0,6.7012,6.7012,6.7004,6.7004,6.7003,6.6947,6.6946,6.6945,6.6827,6.6824,6.6821,6.6819,6.6761,6.6762,6.6763,0,0,0,0,0,0,0,0,0,0,0,0,0,6.6987,6.7013,6.7005,6.6937,6.6931,6.6947,6.6946,6.6945,6.6828,6.6824,6.682,6.6817,6.6761,6.6762,6.6763,6.684,0,0,6.6766,6.6766,0,0,0,0,0,0,0,0,6.6989,6.6987,6.6948,6.6942,6.6934,6.689,6.6927,6.691,6.6829,6.6867,6.682,6.6815,6.6807,6.6804,6.6801,6.6838,6.6835,6.6766,6.6767,6.6767,6.6767,0,0,0,0,0,0,0,6.699,6.6989,6.6981,6.6947,6.6939,6.691,6.6902,6.6923,6.6858,6.6863,6.6854,6.6849,6.6803,6.6801,6.6799,6.6834,6.6766,6.6767,6.6767,6.6768,6.6928,6.6932,0,0,0,0,0,0,6.7002,6.6991,6.6983,6.698,6.6953,6.6913,6.6904,6.6908,6.6857,6.6846,6.6852,6.6844,6.6801,6.6798,6.6796,6.6882,6.6767,6.6768,6.6769,6.6925,6.6929,6.6933,0,0,0,0,0,0,6.7003,6.7002,6.6986,6.6983,6.6978,6.6916,6.6921,6.6909,6.6906,6.6849,6.6837,6.6862,6.6798,6.6795,6.683,6.6878,6.6768,6.6769,6.692,6.6926,6.6931,6.7054,0,0,0,0,0,0,6.7003,6.7003,6.7032,6.6984,6.6979,6.702,6.6924,6.691,6.6908,6.6897,6.6855,6.6844,6.6795,6.6829,6.6831,6.6877,6.677,6.6916,6.6923,6.6929,6.7046,6.7063,6.7079,0,0,0,0,0,6.7004,6.707,6.7034,6.7034,6.7014,6.7023,6.702,6.6962,6.6913,6.6941,6.6904,6.6846,6.6873,6.6833,6.6834,6.6882,6.6912,6.6921,6.6929,6.7038,6.706,6.7078,0,0,0,0,0,0,6.7126,6.7063,6.7022,6.7075,6.7055,6.7003,6.7037,6.6987,6.6981,6.6971,6.6898,6.689,6.6933,6.6911,6.6869,6.6953,6.6883,6.6892,6.6966,6.6986,6.7002,6.7006,6.6771,0,0,0,0,0,6.7159,6.7172,6.7116,6.7168,6.716,6.7101,6.7103,6.7059,6.7036,6.7027,6.6992,6.6972,6.6976,6.698,6.698,6.7042,6.703,6.7075,6.7092,6.7106,6.7114,6.7142,6.7161,6.696,6.696,6.696,0,0,6.7228,6.7194,6.7207,6.7191,6.7171,6.7185,6.7095,6.7114,6.7124,6.703,6.706,6.7034,6.7007,6.7055,6.7074,6.7037,6.7167,6.7116,6.7128,6.7128,6.7153,6.7172,6.7189,6.6966,6.6965,6.6964,0,0,6.7359,6.7336,6.7375,6.7357,6.7327,6.7287,6.7296,6.7252,6.723,6.7259,6.7188,6.7199,6.7207,6.719,6.7182,6.7306,6.7251,6.7308,6.7394,6.7423,6.7438,6.7452,6.7494,6.751,6.7317,6.7317,6.7317,0,6.7448,6.7467,6.7403,6.7426,6.742,6.7335,6.7374,6.7359,6.7332,6.7329,6.7289,6.7296,6.7272,6.7313,6.7343,6.7341,6.7348,6.7312,6.7441,6.7454,6.7466,6.7505,6.7522,6.7324,6.7323,6.7322,6.7322,0,6.7576,6.7591,6.7626,6.76,6.7599,6.763,6.757,6.7576,6.7533,6.7497,6.7526,6.7494,6.7485,6.7492,6.745,6.7527,6.7505,6.7455,6.7382,6.7493,6.7529,6.7544,6.7334,6.7331,6.7329,6.7328,0,0,6.7784,6.772,6.7735,6.7721,6.7681,6.769,6.7717,6.7708,6.7714,6.7698,6.7717,6.7726,6.7677,6.7669,6.7624,6.765,6.7747,6.7595,6.7593,6.7623,6.7828,6.7865,6.7884,6.7711,6.7714,6.7716,6.7829,0,6.7905,6.7947,6.7889,6.7944,6.7955,6.7874,6.7897,6.7875,6.7842,6.7846,6.781,6.7816,6.7753,6.7747,6.7769,6.7731,6.7787,6.7722,6.7728,6.7729,6.7736,6.7903,6.7943,6.8052,6.7843,6.7845,6.7847,0,6.8052,6.8041,6.8097,6.8052,6.8054,6.8076,6.8062,6.8068,6.804,6.8014,6.8004,6.795,6.7972,6.7904,6.7932,6.7889,6.7888,6.787,6.7872,6.787,6.7794,6.7903,6.8085,6.8101,6.7869,6.7867,6.7865,0,6.8195,6.8195,6.8228,6.8219,6.8167,6.8184,6.8164,6.8133,6.813,6.8118,6.8115,6.8106,6.8101,6.8095,6.804,6.7995,6.8074,6.8001,6.8052,6.8054,6.8072,6.8071,6.8255,6.8074,6.8074,6.8074,6.8073,0,6.8336,6.8373,6.8291,6.8311,6.8349,6.8283,6.8322,6.8293,6.8266,6.8278,6.8208,6.8221,6.8148,6.8153,6.811,6.8139,6.8138,6.8116,6.8104,6.8122,6.8124,6.8119,6.811,6.8078,6.8077,6.8076,6.8075,0,6.8502,6.8449,6.8479,6.8427,6.8415,6.8446,6.8401,6.8417,6.8379,6.8395,6.8395,6.8336,6.8338,6.8282,6.8273,6.8244,6.8291,6.8266,6.83,6.8292,6.8345,6.8341,6.8531,6.8552,6.836,6.8362,6.8363,0,6.8595,6.8621,6.8572,6.8575,6.8558,6.8564,6.856,6.8495,6.8495,6.8464,6.8484,6.848,6.8473,6.8479,6.8435,6.8427,6.84,6.8468,6.8399,6.8415,6.8399,6.8398,6.8399,6.8482,6.8484,6.8486,6.8488,0,6.8765,6.8737,6.8734,6.8723,6.8721,6.8709,6.8692,6.8699,6.8627,6.863,6.8631,6.8625,6.8615,6.8611,6.8595,6.8573,6.8518,6.851,6.8521,6.8539,6.8557,6.8546,6.8338,6.8506,6.8504,6.8503,6.8502,6.8501,6.8896,6.8914,6.8882,6.8882,6.8862,6.8848,6.8859,6.8822,6.8822,6.8808,6.877,6.8776,6.8746,6.8718,6.8701,6.8704,6.8671,6.8688,6.8691,6.8696,6.8706,6.8557,6.8701,6.8701,6.87,6.87,6.8699,0,6.906,6.9035,6.9035,6.9013,6.9013,6.8961,6.894,6.8943,6.8949,6.8926,6.892,6.892,6.8915,6.887,6.886,6.8872,6.8846,6.8871,6.8869,6.8864,6.8737,6.8728,6.8892,6.8892,6.8892,6.8892,6.8892,6.8892,6.9145,6.9174,6.9142,6.9159,6.9133,6.9139,6.9131,6.9117,6.9097,6.91,6.9096,6.9066,6.9034,6.902,6.9014,6.9,6.8999,6.9032,6.9011,6.8892,6.8874,6.8856,6.8847,6.9033,6.9033,6.9137,6.9138,6.9139]}]]